Location: Briarwood Beach
(41.0767°N, 81.8962°W)
Time: 04:42:15
(UTC+00:00)

Daily predictions for brighter satellites

Satellite Brightness Start Highest point End
(mag) Time Altitude Azimuth Time Altitude Azimuth Time Altitude Azimuth
ERS-2 2.2 00:00:26 10° N 00:04:04 74° WNW 00:07:41 10° SSW
BREEZE-M DEB (TANK) 3.8 00:03:43 10° WNW 00:06:06 28° SW 00:07:21 17° S
Cosmos 2263 Rocket 4.5 00:04:26 10° W 00:08:28 20° NW 00:12:31 10° N
Okean 1-7 Rocket 4.2 00:04:39 10° SSW 00:09:07 58° W 00:13:38 10° N
Cosmos 44 3.4 00:08:31 10° S 00:13:03 51° ESE 00:14:12 41° ENE
PSLV R/B 4.1 00:09:29 10° N 00:13:41 76° WNW 00:17:53 10° SSW
Nadezhda 4 Rocket 4.2 00:08:29 10° SSW 00:14:44 74° W 00:20:58 10° N
Cosmos 1328 4.1 00:15:03 10° S 00:18:15 46° SE 00:18:15 46° SE
Cosmos 1626 Rocket 3.5 00:14:37 10° S 00:18:59 88° W 00:22:51 14° N
CZ-4 R/B 1.7 00:15:06 10° S 00:19:12 69° WSW 00:23:16 10° NNW
EXPRESS MD2 3.6 00:12:28 10° WNW 00:19:33 87° NNE 00:20:41 48° ESE
Lacrosse 5 1.8 00:15:48 10° NW 00:20:49 62° NE 00:22:02 47° E
ARGOS 3.0 00:15:59 10° SSE 00:21:15 63° ENE 00:26:34 10° N
NOSS 2-1 (E) 4.0 00:19:27 10° SSW 00:21:39 33° S 00:21:39 33° S
Aureole 2 Rocket 4.4 00:21:09 10° WSW 00:23:37 23° WNW 00:25:13 16° NNW
CZ-4B R/B 4.3 00:23:28 10° NNW 00:25:41 17° WNW 00:27:52 10° WSW
Cosmos 1689 Rocket 3.4 00:27:26 36° WNW 00:27:43 37° WNW 00:30:22 10° SW
Hubble Space Telescope 3.1 00:27:16 10° SSW 00:29:29 14° S 00:30:03 14° SSE
CSL-04 Debris 4.0 00:26:47 10° SSE 00:32:10 80° ENE 00:37:35 10° NNW
CZ-2C R/B 2.7 00:31:47 41° NE 00:33:36 60° E 00:39:07 10° S
Cosmos 990 Rocket 3.8 00:29:45 10° SSW 00:34:58 86° ESE 00:36:47 42° NNE
Cosmos 1844 4.3 00:35:28 10° SW 00:40:59 55° WNW 00:44:56 19° N
Okean-O 3.7 00:37:14 10° S 00:41:29 46° W 00:45:46 10° NNW
COSMOS 2455 4.4 00:36:35 10° WSW 00:41:51 31° NW 00:46:43 12° N
Cosmos 1833 Rocket 4.4 00:39:41 10° N 00:41:36 19° N 00:41:36 19° N
Cosmos 2082 Rocket 4.4 00:43:05 10° N 00:43:24 11° N 00:43:24 11° N
Cosmos 2026 Rocket 3.9 00:45:39 10° S 00:51:43 81° W 00:57:56 10° N
Meteor 2-19 Rocket 4.3 00:49:05 10° S 00:55:14 80° E 00:57:05 48° NNE
NOSS 3-1 (C) 4.1 00:48:04 10° NNW 00:55:36 62° NE 00:57:05 55° E
H-2A R/B 3.2 00:52:49 10° SSW 00:57:27 41° W 01:02:15 10° NNW
Meteor 1-11 4.1 00:55:18 10° S 01:00:49 83° S 01:00:49 83° S
Cosmos 1844 Rocket 4.3 00:57:22 10° WSW 01:02:20 31° WNW 01:06:14 15° N
Cosmos 1898 Rocket 3.9 00:59:16 10° SSW 01:04:28 62° WNW 01:05:07 57° NNW
Cosmos 1680 Rocket 3.9 01:02:43 10° NNW 01:07:53 60° WSW 01:08:26 57° SW
Cosmos 2278 Rocket 3.7 01:06:00 10° S 01:08:10 24° S 01:08:10 24° S
Cosmos 2098 Rocket 4.4 01:04:52 10° SSW 01:11:48 74° W 01:19:17 10° N
USA 229 DEB 4.1 01:05:24 10° NNW 01:11:45 55° NNE 01:11:45 55° NNE
USA 229 4.1 01:05:31 10° NNW 01:11:48 54° NNE 01:11:48 54° NNE
USA 267 3.1 01:13:39 82° NE 01:14:00 89° NW 01:20:34 10° SW
X-37B 4.2 01:14:33 10° W 01:14:40 11° W 01:14:40 11° W
SJ 16-02 4.1 01:19:36 10° W 01:22:06 15° WNW 01:24:09 11° NNW
Cosmos 2344 4.3 01:17:23 10° NNW 01:27:04 76° NE 01:29:57 58° ESE
NOSS 3-1 (A) 4.3 01:20:46 10° NNW 01:26:54 55° N 01:26:54 55° N
USA 234 4.4 01:49:42 34° NNW 01:49:42 34° NNW 01:53:21 10° NW
Lacrosse 5 4.4 01:59:35 10° WNW 02:01:18 17° W 02:01:18 17° W
SJ 16-02 4.0 09:54:02 13° SE 09:54:02 13° SE 09:54:35 10° SSE
Lacrosse 5 rocket 4.2 09:58:46 11° NE 09:58:46 11° NE 09:59:17 10° NE
Atlas Centaur 2 4.2 09:56:30 25° S 09:58:43 29° SSE 10:05:37 10° ESE
Cosmos 2278 Rocket 3.8 10:02:15 18° N 10:05:33 30° NE 10:10:29 10° ESE
Cosmos 2237 Rocket 3.8 10:09:25 10° SSE 10:14:27 34° ESE 10:19:30 10° NE
Cosmos 468 Rocket 4.1 10:15:13 71° SE 10:15:28 73° ESE 10:20:46 10° NNE
BREEZE-M DEB (TANK) 4.2 10:15:12 39° NW 10:18:25 57° N 10:22:38 10° E
Cosmos 2333 Rocket 2.9 10:20:17 41° N 10:20:17 41° N 10:24:06 10° NNE
Cosmos 2219 Rocket 2.6 10:20:31 48° N 10:20:31 48° N 10:24:39 10° NNE
Cosmos 1464 Rocket 4.4 10:17:12 10° S 10:23:11 61° E 10:29:14 10° NNE
GEOS 3 Rocket 4.3 10:27:03 10° ESE 10:32:13 52° NE 10:34:55 27° NNW
Cosmos 1455 Rocket 3.2 10:29:09 10° S 10:33:29 72° E 10:37:49 10° NNE
IRIDIUM 104 4.1 10:32:42 10° S 10:37:54 72° W 10:43:08 10° N
SKYMED 2 3.6 10:34:03 10° SSE 10:38:23 75° ENE 10:39:48 42° N
COSMOS 2428 2.7 10:38:26 58° WNW 10:38:29 58° WNW 10:44:06 10° NNE
ATLAS CENTAUR R/B 4.4 10:39:03 10° SE 10:40:49 13° ESE 10:42:33 10° E
ERS-2 2.8 10:37:23 10° SSE 10:40:56 53° ENE 10:41:48 41° NNE
Meteor PRIRODA 4.1 10:40:11 10° NNE 10:43:47 57° E 10:47:20 10° S
Cosmos 1953 3.1 10:39:55 10° S 10:43:47 52° E 10:47:39 10° NNE
Cosmos 44 Rocket 4.1 10:43:15 25° NNW 10:46:10 52° NE 10:51:14 10° SE
Cosmos 1689 Rocket 3.9 10:43:59 10° SE 10:46:36 30° ENE 10:47:20 26° NE
IRIDIUM 114 4.3 10:41:55 10° SSW 10:47:02 59° W 10:52:13 10° N
Cosmos 1980 3.9 10:41:33 10° SSW 10:47:09 69° ESE 10:52:48 10° NNE
Cosmos 2360 Rocket 4.2 10:52:11 12° NNW 10:52:11 12° NNW 10:53:00 10° N
deb Chang Zheng 4 3.4 10:46:37 10° NNE 10:50:53 86° WNW 10:55:06 10° SSW
CZ-4B R/B 3.6 10:49:27 10° S 10:50:21 17° S 10:50:21 17° S
MOS 1 Rocket 3.5 10:49:58 10° SSE 10:55:03 79° ENE 10:59:51 10° N
Cosmos 540 Rocket 3.5 10:50:08 10° SSW 10:55:14 80° ESE 11:00:23 10° NNE
IRIDIUM 103 4.5 10:51:13 10° SSW 10:56:13 48° W 11:01:17 10° N
BREEZE-M DEB (TANK) 2.7 10:58:46 38° SSW 10:59:44 60° SE 11:06:09 10° ENE
ADEOS 3.9 10:55:01 10° N 10:59:54 42° WNW 11:00:58 37° W
Cosmos 2034 Rocket 4.1 10:54:20 10° S 11:00:42 85° E 11:07:06 10° N
Cosmos 990 Rocket 4.0 10:59:51 36° NW 11:01:37 54° WSW 11:06:36 10° S
CZ-2C R/B 3.1 10:59:52 18° SSW 11:01:48 25° SSE 11:05:04 10° ESE
Cosmos 1461 3.3 11:01:19 45° W 11:02:10 51° NW 11:06:49 10° NNE
PSLV R/B 4.1 10:58:30 10° SSE 11:02:34 74° ENE 11:06:43 10° N
Meteor 2-10 4.3 11:00:09 10° SSW 11:05:34 47° WNW 11:10:54 10° N
OAO 2 Rocket 4.1 11:04:20 27° SW 11:06:24 41° S 11:11:02 10° ESE
SL-8 R/B 3.8 11:06:33 35° NW 11:08:34 71° NNE 11:13:23 10° ESE
Nadezhda 4 Rocket 3.9 11:04:00 10° N 11:10:09 89° E 11:16:16 10° S
Cosmos 1892 Rocket 4.0 11:12:41 36° W 11:12:51 36° W 11:16:51 10° SSW
Meteor 1-16 Rocket 4.3 11:11:14 10° S 11:17:07 90° W 11:23:06 10° N
Cosmos 858 Rocket 4.4 11:14:37 14° NNW 11:19:09 65° WSW 11:24:17 10° S
Cosmos 1340 3.1 11:16:30 10° N 11:20:14 63° E 11:23:57 10° SSE
Cosmos 921 Rocket 3.9 11:21:02 26° NW 11:21:02 26° NW 11:24:00 10° N
Cosmos 1763 Rocket 4.2 11:21:23 24° W 11:23:19 31° WNW 11:27:58 10° N
Meteor 2-13 Rocket 4.4 11:17:20 10° NNW 11:23:29 71° W 11:29:35 10° S
Cosmos 1703 3.3 11:21:30 10° N 11:25:25 82° E 11:29:18 10° S
SAR-Lupe-4 3.6 11:22:32 10° S 11:26:02 52° W 11:28:45 16° NNW
COSMO-SKYMED 1 3.3 11:22:43 10° SSW 11:26:35 31° W 11:28:27 22° NW
CZ-4B R/B 3.2 11:24:30 10° N 11:27:47 33° WNW 11:31:06 10° SW
Cosmos 841 Rocket 3.5 11:24:23 10° SW 11:29:24 54° WNW 11:34:28 10° N
Cosmos 1898 Rocket 4.1 11:29:26 19° NW 11:32:23 33° W 11:36:58 10° SSW
Gbstr 26 Del rocket 4.5 11:28:41 10° SW 11:36:13 89° NW 11:44:27 10° NE
H-2A R/B 3.2 11:33:44 10° N 11:37:09 35° WNW 11:40:33 10° SW
Lacrosse 5 rocket 1.7 11:34:24 16° NNW 11:37:22 54° NE 11:40:59 10° ESE
Chandra Rocket (1) 4.1 11:38:02 10° SSW 11:38:52 11° SSW 11:39:36 10° S
Lacrosse 4 Rocket 1.6 11:35:25 10° SSW 11:39:35 75° ESE 11:43:54 10° NNE
BREEZE M DEB (TANK) 1.6 11:41:00 13° SW 11:42:49 72° SE 11:46:22 10° ENE
Cosmos 2098 Rocket 4.3 11:37:15 10° N 11:43:23 58° ENE 11:48:14 10° SSE
Cosmos 1570 Rocket 4.2 11:38:39 10° SW 11:43:41 49° WNW 11:48:48 10° N
Cosmos 2369 Rocket 4.5 11:39:58 10° N 11:43:56 19° NE 11:47:52 10° E
Cosmos 1544 Rocket 4.3 11:40:49 10° SW 11:44:33 28° WNW 11:48:19 10° NNW
SL-16 R/B 2.6 11:40:13 10° SSW 11:45:49 69° ESE 11:51:27 10° NNE
FALCON 9 DEB 4.0 11:44:29 19° W 11:46:15 32° NNW 11:49:22 10° NE
Cosmos 2026 Rocket 4.2 11:40:49 10° N 11:47:12 82° E 11:53:34 10° S
Atlas Centaur 2 4.1 11:40:13 10° WSW 11:47:38 39° S 11:55:21 10° ESE
Cosmos 2278 Rocket 2.7 11:44:26 10° NW 11:49:43 41° WSW 11:54:58 10° S
CZ-4B R/B 3.8 11:44:48 10° NNE 11:50:27 63° ESE 11:55:58 10° S
Cosmos 1400 Rocket 3.1 11:47:54 10° SSW 11:51:48 44° WNW 11:55:46 10° N
Cosmos 1328 3.7 11:49:42 10° NNW 11:53:35 63° W 11:57:26 10° S
